{"data":{"norad_id":60281,"epoch":"2026-09-21T01:51:08.553312Z","epoch_age_seconds":131273,"freshness":"FRESH","line1":"1 60281U 24132D   26264.07718233 -.00001122  00000+0 -22087-4 0  9990","line2":"2 60281  53.1597 222.8515 0000759  80.1915 279.9173 15.34394548121502","mean_motion":15.34394548,"eccentricity":7.59e-5,"inclination_deg":53.1597,"raan_deg":222.8515,"arg_perigee_deg":80.1915,"mean_anomaly_deg":279.9173,"bstar":-2.2087e-5,"rev_number":12150,"period_min":93.848091540534,"perigee_km":462.20022374389,"apogee_km":463.2386657522,"semimajor_km":6840.856444748,"source":"CELESTRAK","updated_at":"2026-09-22T09:00:49.191692Z"}}